Regional Weather Roundup
Issued by NWS

Home | Current Version | Previous Version | Graphics & Text | Print | Product List | Glossary On
Versions: 1 2 3 4 5 6 7 8 9 10 11 12 13 14 15 16 17 18 19 20 21 22 23 24 25 26 27 28 29 30 31 32 33 34 35 36 37 38 39 40 41 42 43 44 45 46 47 48 49
000
ASUS45 KBOI 041810
RWRID

IDAHO REGIONAL WEATHER ROUNDUP
NATIONAL WEATHER SERVICE BOISE ID
1200 PM MDT SAT JUL 04 2015

NOTE: "FAIR" INDICATES FEW OR NO CLOUDS BELOW 12000 FEET
WITH NO SIGNIFICANT WEATHER AND/OR OBSTRUCTIONS TO VISIBILITY

IDZ012-014-041900-
SOUTHWEST IDAHO


CITY           SKY/WX    TMP DP  RH WIND       PRES   REMARKS
BOISE          MOSUNNY   90  45  21 NW7       29.87S
CALDWELL       MOSUNNY   90  46  22 N5        29.86S
MOUNTAIN HOME  MOSUNNY   94  40  15 NW13      29.86F HX  90
$$

IDZ016-017-041900-
SOUTHCENTRAL IDAHO


CITY           SKY/WX    TMP DP  RH WIND       PRES   REMARKS
BURLEY         MOSUNNY   86  47  25 W9        29.95S
JEROME         MOSUNNY   86  41  20 SW9       29.95F
TWIN FALLS     PTSUNNY   92  41  17 W12       29.94S
$$

IDZ019>023-041900-
SOUTHEAST IDAHO


CITY           SKY/WX    TMP DP  RH WIND       PRES   REMARKS
IDAHO FALLS    SUNNY     81  57  43 W6        29.98F
POCATELLO      SUNNY     88  46  23 W9        29.97F
REXBURG        SUNNY     83  50  31 VRB6      29.99S
$$

IDZ006-010-011-018-031-032-041900-
CENTRAL IDAHO MOUNTAINS


CITY           SKY/WX    TMP DP  RH WIND       PRES   REMARKS
MCCALL         MOSUNNY   84  38  19 CALM      29.99F
HAILEY         SUNNY     84  48  28 SE10      30.02F
STANLEY          N/A     82  35  18 N5        30.11F
SALMON         SUNNY     81  43  26 CALM      29.92F
CHALLIS        SUNNY     83  40  21 NE3       30.00F
$$

IDZ002-004-006-007-026-041900-
NORTHERN IDAHO


CITY           SKY/WX    TMP DP  RH WIND       PRES   REMARKS
LEWISTON       SUNNY     90  49  24 VRB3      29.78F
LOWELL           N/A     84  50  30 CALM      29.80F
COEUR D`ALENE  SUNNY     84  52  32 SE6       29.82F
MULLAN PASS    SUNNY     75  42  30 VRB6      30.06S
$$


USA.gov is the U.S. government's official web portal to all federal, state and local government web resources and services.